﻿測定場所 (Monitoring sites),日付 (Measurement date),時間 (Measurement time),線量率 最大値 (max) μGy/h,線量率 最小値 (min) μGy/h,線量率 平均値 (average) μGy/h,
江東 (Koto),2017-04-23,23:01～24:00,0.0385,0.0332,0.0363,
江東 (Koto),2017-04-23,22:01～23:00,0.0392,0.0346,0.0366,
江東 (Koto),2017-04-23,21:01～22:00,0.0388,0.0344,0.0366,
江東 (Koto),2017-04-23,20:01～21:00,0.0400,0.0343,0.0365,
江東 (Koto),2017-04-23,19:01～20:00,0.0384,0.0343,0.0366,
江東 (Koto),2017-04-23,18:01～19:00,0.0383,0.0344,0.0366,
江東 (Koto),2017-04-23,17:01～18:00,0.0388,0.0349,0.0364,
江東 (Koto),2017-04-23,16:01～17:00,0.0396,0.0337,0.0367,
江東 (Koto),2017-04-23,15:01～16:00,0.0389,0.0345,0.0368,
江東 (Koto),2017-04-23,14:01～15:00,0.0384,0.0342,0.0364,
江東 (Koto),2017-04-23,13:01～14:00,0.0394,0.0341,0.0365,
江東 (Koto),2017-04-23,12:01～13:00,0.0391,0.0346,0.0366,
江東 (Koto),2017-04-23,11:01～12:00,0.0390,0.0350,0.0367,
江東 (Koto),2017-04-23,10:01～11:00,0.0385,0.0348,0.0367,
江東 (Koto),2017-04-23,09:01～10:00,0.0391,0.0343,0.0367,
江東 (Koto),2017-04-23,08:01～09:00,0.0385,0.0349,0.0370,
江東 (Koto),2017-04-23,07:01～08:00,0.0389,0.0328,0.0366,
江東 (Koto),2017-04-23,06:01～07:00,0.0388,0.0346,0.0367,
江東 (Koto),2017-04-23,05:01～06:00,0.0388,0.0342,0.0365,
江東 (Koto),2017-04-23,04:01～05:00,0.0392,0.0347,0.0366,
江東 (Koto),2017-04-23,03:01～04:00,0.0395,0.0340,0.0366,
江東 (Koto),2017-04-23,02:01～03:00,0.0391,0.0348,0.0369,
江東 (Koto),2017-04-23,01:01～02:00,0.0391,0.0346,0.0372,
江東 (Koto),2017-04-23,00:01～01:00,0.0415,0.0360,0.0387,
江東 (Koto),2017-04-22,23:01～24:00,0.0454,0.0384,0.0417,
江東 (Koto),2017-04-22,22:01～23:00,0.0482,0.0424,0.0453,
江東 (Koto),2017-04-22,21:01～22:00,0.0488,0.0420,0.0452,
江東 (Koto),2017-04-22,20:01～21:00,0.0438,0.0388,0.0417,
江東 (Koto),2017-04-22,19:01～20:00,0.0454,0.0403,0.0424,
江東 (Koto),2017-04-22,18:01～19:00,0.0471,0.0397,0.0427,
江東 (Koto),2017-04-22,17:01～18:00,0.0468,0.0344,0.0386,
江東 (Koto),2017-04-22,16:01～17:00,0.0401,0.0347,0.0371,
江東 (Koto),2017-04-22,15:01～16:00,0.0403,0.0349,0.0371,
江東 (Koto),2017-04-22,14:01～15:00,0.0393,0.0348,0.0370,
江東 (Koto),2017-04-22,13:01～14:00,0.0399,0.0338,0.0369,
江東 (Koto),2017-04-22,12:01～13:00,0.0395,0.0342,0.0371,
江東 (Koto),2017-04-22,11:01～12:00,0.0400,0.0352,0.0372,
江東 (Koto),2017-04-22,10:01～11:00,0.0391,0.0340,0.0369,
江東 (Koto),2017-04-22,09:01～10:00,0.0392,0.0348,0.0368,
江東 (Koto),2017-04-22,08:01～09:00,0.0401,0.0349,0.0373,
江東 (Koto),2017-04-22,07:01～08:00,0.0389,0.0352,0.0370,
江東 (Koto),2017-04-22,06:01～07:00,0.0393,0.0350,0.0370,
江東 (Koto),2017-04-22,05:01～06:00,0.0391,0.0350,0.0371,
江東 (Koto),2017-04-22,04:01～05:00,0.0393,0.0352,0.0374,
江東 (Koto),2017-04-22,03:01～04:00,0.0393,0.0355,0.0371,
江東 (Koto),2017-04-22,02:01～03:00,0.0398,0.0351,0.0372,
江東 (Koto),2017-04-22,01:01～02:00,0.0392,0.0350,0.0370,
江東 (Koto),2017-04-22,00:01～01:00,0.0393,0.0345,0.0371,
江東 (Koto),2017-04-21,23:01～24:00,0.0394,0.0349,0.0369,
江東 (Koto),2017-04-21,22:01～23:00,0.0388,0.0346,0.0368,
江東 (Koto),2017-04-21,21:01～22:00,0.0396,0.0350,0.0369,
江東 (Koto),2017-04-21,20:01～21:00,0.0409,0.0346,0.0369,
江東 (Koto),2017-04-21,19:01～20:00,0.0390,0.0347,0.0372,
江東 (Koto),2017-04-21,18:01～19:00,0.0400,0.0349,0.0371,
江東 (Koto),2017-04-21,17:01～18:00,0.0396,0.0342,0.0371,
江東 (Koto),2017-04-21,16:01～17:00,0.0397,0.0352,0.0372,
江東 (Koto),2017-04-21,15:01～16:00,0.0394,0.0344,0.0369,
江東 (Koto),2017-04-21,14:01～15:00,0.0398,0.0346,0.0370,
江東 (Koto),2017-04-21,13:01～14:00,0.0392,0.0350,0.0368,
江東 (Koto),2017-04-21,12:01～13:00,0.0396,0.0346,0.0371,
江東 (Koto),2017-04-21,11:01～12:00,0.0394,0.0357,0.0373,
江東 (Koto),2017-04-21,10:01～11:00,0.0397,0.0344,0.0370,
江東 (Koto),2017-04-21,09:01～10:00,0.0388,0.0349,0.0368,
江東 (Koto),2017-04-21,08:01～09:00,0.0403,0.0343,0.0368,
江東 (Koto),2017-04-21,07:01～08:00,0.0390,0.0347,0.0370,
江東 (Koto),2017-04-21,06:01～07:00,0.0386,0.0339,0.0368,
江東 (Koto),2017-04-21,05:01～06:00,0.0391,0.0332,0.0368,
江東 (Koto),2017-04-21,04:01～05:00,0.0398,0.0347,0.0370,
江東 (Koto),2017-04-21,03:01～04:00,0.0394,0.0346,0.0371,
江東 (Koto),2017-04-21,02:01～03:00,0.0390,0.0344,0.0370,
江東 (Koto),2017-04-21,01:01～02:00,0.0395,0.0351,0.0371,
江東 (Koto),2017-04-21,00:01～01:00,0.0395,0.0349,0.0370,
江東 (Koto),2017-04-20,23:01～24:00,0.0394,0.0338,0.0368,
江東 (Koto),2017-04-20,22:01～23:00,0.0393,0.0348,0.0373,
江東 (Koto),2017-04-20,21:01～22:00,0.0400,0.0340,0.0367,
江東 (Koto),2017-04-20,20:01～21:00,0.0388,0.0347,0.0367,
江東 (Koto),2017-04-20,19:01～20:00,0.0398,0.0346,0.0370,
江東 (Koto),2017-04-20,18:01～19:00,0.0397,0.0348,0.0372,
江東 (Koto),2017-04-20,17:01～18:00,0.0390,0.0345,0.0368,
江東 (Koto),2017-04-20,16:01～17:00,0.0396,0.0349,0.0372,
江東 (Koto),2017-04-20,15:01～16:00,0.0392,0.0344,0.0370,
江東 (Koto),2017-04-20,14:01～15:00,0.0400,0.0351,0.0371,
江東 (Koto),2017-04-20,13:01～14:00,0.0390,0.0345,0.0370,
江東 (Koto),2017-04-20,12:01～13:00,0.0397,0.0350,0.0370,
江東 (Koto),2017-04-20,11:01～12:00,0.0400,0.0351,0.0368,
江東 (Koto),2017-04-20,10:01～11:00,0.0386,0.0348,0.0367,
江東 (Koto),2017-04-20,09:01～10:00,0.0386,0.0340,0.0366,
江東 (Koto),2017-04-20,08:01～09:00,0.0388,0.0346,0.0368,
江東 (Koto),2017-04-20,07:01～08:00,0.0391,0.0351,0.0372,
江東 (Koto),2017-04-20,06:01～07:00,0.0399,0.0347,0.0369,
江東 (Koto),2017-04-20,05:01～06:00,0.0394,0.0349,0.0368,
江東 (Koto),2017-04-20,04:01～05:00,0.0397,0.0351,0.0368,
江東 (Koto),2017-04-20,03:01～04:00,0.0393,0.0351,0.0369,
江東 (Koto),2017-04-20,02:01～03:00,0.0391,0.0347,0.0371,
江東 (Koto),2017-04-20,01:01～02:00,0.0398,0.0348,0.0372,
江東 (Koto),2017-04-20,00:01～01:00,0.0389,0.0348,0.0369,
江東 (Koto),2017-04-19,23:01～24:00,0.0390,0.0351,0.0369,
江東 (Koto),2017-04-19,22:01～23:00,0.0393,0.0347,0.0371,
江東 (Koto),2017-04-19,21:01～22:00,0.0391,0.0350,0.0371,
江東 (Koto),2017-04-19,20:01～21:00,0.0389,0.0341,0.0367,
江東 (Koto),2017-04-19,19:01～20:00,0.0395,0.0350,0.0371,
江東 (Koto),2017-04-19,18:01～19:00,0.0389,0.0348,0.0368,
江東 (Koto),2017-04-19,17:01～18:00,0.0393,0.0353,0.0369,
江東 (Koto),2017-04-19,16:01～17:00,0.0397,0.0344,0.0369,
江東 (Koto),2017-04-19,15:01～16:00,0.0389,0.0351,0.0369,
江東 (Koto),2017-04-19,14:01～15:00,0.0392,0.0343,0.0368,
江東 (Koto),2017-04-19,13:01～14:00,0.0397,0.0346,0.0366,
江東 (Koto),2017-04-19,12:01～13:00,0.0398,0.0347,0.0368,
江東 (Koto),2017-04-19,11:01～12:00,0.0391,0.0347,0.0368,
江東 (Koto),2017-04-19,10:01～11:00,0.0395,0.0351,0.0370,
江東 (Koto),2017-04-19,09:01～10:00,0.0393,0.0348,0.0367,
江東 (Koto),2017-04-19,08:01～09:00,0.0399,0.0350,0.0370,
江東 (Koto),2017-04-19,07:01～08:00,0.0387,0.0338,0.0369,
江東 (Koto),2017-04-19,06:01～07:00,0.0398,0.0339,0.0368,
江東 (Koto),2017-04-19,05:01～06:00,0.0403,0.0351,0.0369,
江東 (Koto),2017-04-19,04:01～05:00,0.0393,0.0342,0.0367,
江東 (Koto),2017-04-19,03:01～04:00,0.0396,0.0347,0.0368,
江東 (Koto),2017-04-19,02:01～03:00,0.0409,0.0345,0.0366,
江東 (Koto),2017-04-19,01:01～02:00,0.0394,0.0343,0.0367,
江東 (Koto),2017-04-19,00:01～01:00,0.0392,0.0341,0.0369,
江東 (Koto),2017-04-18,23:01～24:00,0.0386,0.0344,0.0365,
江東 (Koto),2017-04-18,22:01～23:00,0.0398,0.0348,0.0366,
江東 (Koto),2017-04-18,21:01～22:00,0.0391,0.0344,0.0366,
江東 (Koto),2017-04-18,20:01～21:00,0.0384,0.0349,0.0368,
江東 (Koto),2017-04-18,19:01～20:00,0.0387,0.0343,0.0366,
江東 (Koto),2017-04-18,18:01～19:00,0.0380,0.0339,0.0365,
江東 (Koto),2017-04-18,17:01～18:00,0.0385,0.0348,0.0366,
江東 (Koto),2017-04-18,16:01～17:00,0.0395,0.0343,0.0368,
江東 (Koto),2017-04-18,15:01～16:00,0.0391,0.0345,0.0367,
江東 (Koto),2017-04-18,14:01～15:00,0.0390,0.0348,0.0369,
江東 (Koto),2017-04-18,13:01～14:00,0.0392,0.0342,0.0368,
江東 (Koto),2017-04-18,12:01～13:00,0.0402,0.0346,0.0370,
江東 (Koto),2017-04-18,11:01～12:00,0.0391,0.0344,0.0368,
江東 (Koto),2017-04-18,10:01～11:00,0.0391,0.0344,0.0368,
江東 (Koto),2017-04-18,09:01～10:00,0.0390,0.0348,0.0370,
江東 (Koto),2017-04-18,08:01～09:00,0.0421,0.0361,0.0393,
江東 (Koto),2017-04-18,07:01～08:00,0.0526,0.0401,0.0450,
江東 (Koto),2017-04-18,06:01～07:00,0.0544,0.0471,0.0506,
江東 (Koto),2017-04-18,05:01～06:00,0.0509,0.0370,0.0439,
江東 (Koto),2017-04-18,04:01～05:00,0.0412,0.0365,0.0385,
江東 (Koto),2017-04-18,03:01～04:00,0.0428,0.0362,0.0396,
江東 (Koto),2017-04-18,02:01～03:00,0.0438,0.0385,0.0411,
江東 (Koto),2017-04-18,01:01～02:00,0.0426,0.0388,0.0407,
江東 (Koto),2017-04-18,00:01～01:00,0.0432,0.0386,0.0409,
江東 (Koto),2017-04-17,23:01～24:00,0.0440,0.0382,0.0408,
江東 (Koto),2017-04-17,22:01～23:00,0.0418,0.0368,0.0393,
江東 (Koto),2017-04-17,21:01～22:00,0.0419,0.0361,0.0382,
江東 (Koto),2017-04-17,20:01～21:00,0.0411,0.0365,0.0384,
江東 (Koto),2017-04-17,19:01～20:00,0.0432,0.0379,0.0402,
江東 (Koto),2017-04-17,18:01～19:00,0.0426,0.0380,0.0402,
江東 (Koto),2017-04-17,17:01～18:00,0.0413,0.0366,0.0387,
江東 (Koto),2017-04-17,16:01～17:00,0.0408,0.0343,0.0374,
江東 (Koto),2017-04-17,15:01～16:00,0.0408,0.0347,0.0369,
江東 (Koto),2017-04-17,14:01～15:00,0.0401,0.0355,0.0372,
江東 (Koto),2017-04-17,13:01～14:00,0.0397,0.0345,0.0370,
江東 (Koto),2017-04-17,12:01～13:00,0.0398,0.0345,0.0369,
江東 (Koto),2017-04-17,11:01～12:00,0.0397,0.0350,0.0373,
江東 (Koto),2017-04-17,10:01～11:00,0.0391,0.0349,0.0372,
江東 (Koto),2017-04-17,09:01～10:00,0.0387,0.0345,0.0370,
江東 (Koto),2017-04-17,08:01～09:00,0.0399,0.0347,0.0372,
江東 (Koto),2017-04-17,07:01～08:00,0.0391,0.0348,0.0369,
江東 (Koto),2017-04-17,06:01～07:00,0.0409,0.0353,0.0372,
江東 (Koto),2017-04-17,05:01～06:00,0.0396,0.0351,0.0372,
江東 (Koto),2017-04-17,04:01～05:00,0.0398,0.0352,0.0371,
江東 (Koto),2017-04-17,03:01～04:00,0.0388,0.0349,0.0371,
江東 (Koto),2017-04-17,02:01～03:00,0.0412,0.0357,0.0375,
江東 (Koto),2017-04-17,01:01～02:00,0.0389,0.0352,0.0371,
江東 (Koto),2017-04-17,00:01～01:00,0.0393,0.0350,0.0372,
